owner,sensor,date,latitude,longitude,sea_surface_height_above_sea_level,qcFlag 
WAVCIS,ioos:station:WAVCIS:CSI16:1,2009-09-01T00:00:00Z,29.4012,-89.0355,9.151,11111222 
WAVCIS,ioos:station:WAVCIS:CSI16:1,2009-09-01T01:00:00Z,29.4012,-89.0355,9.183,11111222 
WAVCIS,ioos:station:WAVCIS:CSI16:1,2009-09-01T02:00:00Z,29.4012,-89.0355,9.205,11111222 
WAVCIS,ioos:station:WAVCIS:CSI16:1,2009-09-01T03:00:00Z,29.4012,-89.0355,9.259,11111222 
WAVCIS,ioos:station:WAVCIS:CSI16:1,2009-09-01T04:00:00Z,29.4012,-89.0355,9.296,11111222 
WAVCIS,ioos:station:WAVCIS:CSI16:1,2009-09-01T05:00:00Z,29.4012,-89.0355,9.333,11111222 
WAVCIS,ioos:station:WAVCIS:CSI16:1,2009-09-01T06:00:00Z,29.4012,-89.0355,9.369,11111222 
WAVCIS,ioos:station:WAVCIS:CSI16:1,2009-09-01T07:00:00Z,29.4012,-89.0355,9.415,11111222 
WAVCIS,ioos:station:WAVCIS:CSI16:1,2009-09-01T08:00:00Z,29.4012,-89.0355,9.471,11111222 
WAVCIS,ioos:station:WAVCIS:CSI16:1,2009-09-01T09:00:00Z,29.4012,-89.0355,9.55,11111222 
WAVCIS,ioos:station:WAVCIS:CSI16:1,2009-09-01T10:00:00Z,29.4012,-89.0355,9.601,11111222 
WAVCIS,ioos:station:WAVCIS:CSI16:1,2009-09-01T11:00:00Z,29.4012,-89.0355,9.634,11111222 
WAVCIS,ioos:station:WAVCIS:CSI16:1,2009-09-01T12:00:00Z,29.4012,-89.0355,9.668,11111222 
WAVCIS,ioos:station:WAVCIS:CSI16:1,2009-09-01T13:00:00Z,29.4012,-89.0355,9.676,11111222 
WAVCIS,ioos:station:WAVCIS:CSI16:1,2009-09-01T14:00:00Z,29.4012,-89.0355,9.677,11111222 
WAVCIS,ioos:station:WAVCIS:CSI16:1,2009-09-01T15:00:00Z,29.4012,-89.0355,9.653,11111222 
WAVCIS,ioos:station:WAVCIS:CSI16:1,2009-09-01T16:00:00Z,29.4012,-89.0355,9.619,11111222 
WAVCIS,ioos:station:WAVCIS:CSI16:1,2009-09-01T17:00:00Z,29.4012,-89.0355,9.543,11111222 
WAVCIS,ioos:station:WAVCIS:CSI16:1,2009-09-01T18:00:00Z,29.4012,-89.0355,9.429,11111222 
WAVCIS,ioos:station:WAVCIS:CSI16:1,2009-09-01T19:00:00Z,29.4012,-89.0355,9.349,11111222 
WAVCIS,ioos:station:WAVCIS:CSI16:1,2009-09-01T20:00:00Z,29.4012,-89.0355,9.295,11111222 
WAVCIS,ioos:station:WAVCIS:CSI16:1,2009-09-01T21:00:00Z,29.4012,-89.0355,9.255,11111222 
WAVCIS,ioos:station:WAVCIS:CSI16:1,2009-09-01T22:00:00Z,29.4012,-89.0355,9.232,11111222 
WAVCIS,ioos:station:WAVCIS:CSI16:1,2009-09-01T23:00:00Z,29.4012,-89.0355,9.23,11111222 
WAVCIS,ioos:station:WAVCIS:CSI16:1,2009-09-02T00:00:00Z,29.4012,-89.0355,9.24,11111222 
WAVCIS,ioos:station:WAVCIS:CSI16:1,2009-09-02T01:00:00Z,29.4012,-89.0355,9.266,11111222 
WAVCIS,ioos:station:WAVCIS:CSI16:1,2009-09-02T02:00:00Z,29.4012,-89.0355,9.294,11111222 
WAVCIS,ioos:station:WAVCIS:CSI16:1,2009-09-02T03:00:00Z,29.4012,-89.0355,9.322,11111222 
WAVCIS,ioos:station:WAVCIS:CSI16:1,2009-09-02T04:00:00Z,29.4012,-89.0355,9.35,11111222 
WAVCIS,ioos:station:WAVCIS:CSI16:1,2009-09-02T05:00:00Z,29.4012,-89.0355,9.376,11111222 
WAVCIS,ioos:station:WAVCIS:CSI16:1,2009-09-02T06:00:00Z,29.4012,-89.0355,9.403,11111222 
WAVCIS,ioos:station:WAVCIS:CSI16:1,2009-09-02T07:00:00Z,29.4012,-89.0355,9.449,11111222 
WAVCIS,ioos:station:WAVCIS:CSI16:1,2009-09-02T08:00:00Z,29.4012,-89.0355,9.507,11111222 
WAVCIS,ioos:station:WAVCIS:CSI16:1,2009-09-02T09:00:00Z,29.4012,-89.0355,9.568,11111222 
WAVCIS,ioos:station:WAVCIS:CSI16:1,2009-09-02T10:00:00Z,29.4012,-89.0355,9.616,11111222 
WAVCIS,ioos:station:WAVCIS:CSI16:1,2009-09-02T11:00:00Z,29.4012,-89.0355,9.653,11111222 
WAVCIS,ioos:station:WAVCIS:CSI16:1,2009-09-02T12:00:00Z,29.4012,-89.0355,9.684,11111222 
WAVCIS,ioos:station:WAVCIS:CSI16:1,2009-09-02T13:00:00Z,29.4012,-89.0355,9.691,11111222 
WAVCIS,ioos:station:WAVCIS:CSI16:1,2009-09-02T14:00:00Z,29.4012,-89.0355,9.698,11111222 
WAVCIS,ioos:station:WAVCIS:CSI16:1,2009-09-02T15:00:00Z,29.4012,-89.0355,9.68,11111222 
WAVCIS,ioos:station:WAVCIS:CSI16:1,2009-09-02T16:00:00Z,29.4012,-89.0355,9.652,11111222 
WAVCIS,ioos:station:WAVCIS:CSI16:1,2009-09-02T17:00:00Z,29.4012,-89.0355,9.61,11111222 
WAVCIS,ioos:station:WAVCIS:CSI16:1,2009-09-02T18:00:00Z,29.4012,-89.0355,9.54,11111222 
WAVCIS,ioos:station:WAVCIS:CSI16:1,2009-09-02T19:00:00Z,29.4012,-89.0355,9.443,11111222 
WAVCIS,ioos:station:WAVCIS:CSI16:1,2009-09-02T20:00:00Z,29.4012,-89.0355,9.375,11111222 
WAVCIS,ioos:station:WAVCIS:CSI16:1,2009-09-02T21:00:00Z,29.4012,-89.0355,9.327,11111222 
WAVCIS,ioos:station:WAVCIS:CSI16:1,2009-09-02T22:00:00Z,29.4012,-89.0355,9.316,11111222 
WAVCIS,ioos:station:WAVCIS:CSI16:1,2009-09-02T23:00:00Z,29.4012,-89.0355,9.314,11111222 
WAVCIS,ioos:station:WAVCIS:CSI16:1,2009-09-03T00:00:00Z,29.4012,-89.0355,9.305,11111222 
WAVCIS,ioos:station:WAVCIS:CSI16:1,2009-09-03T01:00:00Z,29.4012,-89.0355,9.313,11111222 
WAVCIS,ioos:station:WAVCIS:CSI16:1,2009-09-03T02:00:00Z,29.4012,-89.0355,9.336,11111222 
WAVCIS,ioos:station:WAVCIS:CSI16:1,2009-09-03T03:00:00Z,29.4012,-89.0355,9.364,11111222 
WAVCIS,ioos:station:WAVCIS:CSI16:1,2009-09-03T04:00:00Z,29.4012,-89.0355,9.383,11111222 
WAVCIS,ioos:station:WAVCIS:CSI16:1,2009-09-03T05:00:00Z,29.4012,-89.0355,9.406,11111222 
WAVCIS,ioos:station:WAVCIS:CSI16:1,2009-09-03T06:00:00Z,29.4012,-89.0355,9.429,11111222 
WAVCIS,ioos:station:WAVCIS:CSI16:1,2009-09-03T07:00:00Z,29.4012,-89.0355,9.46,11111222 
WAVCIS,ioos:station:WAVCIS:CSI16:1,2009-09-03T08:00:00Z,29.4012,-89.0355,9.519,11111222 
WAVCIS,ioos:station:WAVCIS:CSI16:1,2009-09-03T09:00:00Z,29.4012,-89.0355,9.554,11111222 
WAVCIS,ioos:station:WAVCIS:CSI16:1,2009-09-03T10:00:00Z,29.4012,-89.0355,9.597,11111222 
WAVCIS,ioos:station:WAVCIS:CSI16:1,2009-09-03T11:00:00Z,29.4012,-89.0355,9.644,11111222 
WAVCIS,ioos:station:WAVCIS:CSI16:1,2009-09-03T12:00:00Z,29.4012,-89.0355,9.69,11111222 
WAVCIS,ioos:station:WAVCIS:CSI16:1,2009-09-03T13:00:00Z,29.4012,-89.0355,9.7,11111222 
WAVCIS,ioos:station:WAVCIS:CSI16:1,2009-09-03T14:00:00Z,29.4012,-89.0355,9.721,11111222 
WAVCIS,ioos:station:WAVCIS:CSI16:1,2009-09-03T15:00:00Z,29.4012,-89.0355,9.736,11111222 
WAVCIS,ioos:station:WAVCIS:CSI16:1,2009-09-03T16:00:00Z,29.4012,-89.0355,9.728,11111222 
WAVCIS,ioos:station:WAVCIS:CSI16:1,2009-09-03T17:00:00Z,29.4012,-89.0355,9.683,11111222 
WAVCIS,ioos:station:WAVCIS:CSI16:1,2009-09-03T18:00:00Z,29.4012,-89.0355,9.637,11111222 
WAVCIS,ioos:station:WAVCIS:CSI16:1,2009-09-03T19:00:00Z,29.4012,-89.0355,9.598,11111222 
WAVCIS,ioos:station:WAVCIS:CSI16:1,2009-09-03T20:00:00Z,29.4012,-89.0355,9.54,11111222 
WAVCIS,ioos:station:WAVCIS:CSI16:1,2009-09-03T21:00:00Z,29.4012,-89.0355,9.488,11111222 
WAVCIS,ioos:station:WAVCIS:CSI16:1,2009-09-03T22:00:00Z,29.4012,-89.0355,9.452,11111222 
WAVCIS,ioos:station:WAVCIS:CSI16:1,2009-09-03T23:00:00Z,29.4012,-89.0355,9.429,11111222 
WAVCIS,ioos:station:WAVCIS:CSI16:1,2009-09-04T00:00:00Z,29.4012,-89.0355,9.435,11111222 
WAVCIS,ioos:station:WAVCIS:CSI16:1,2009-09-04T01:00:00Z,29.4012,-89.0355,9.449,11111222 
WAVCIS,ioos:station:WAVCIS:CSI16:1,2009-09-04T02:00:00Z,29.4012,-89.0355,9.47,11111222 
WAVCIS,ioos:station:WAVCIS:CSI16:1,2009-09-04T03:00:00Z,29.4012,-89.0355,9.493,11111222 
WAVCIS,ioos:station:WAVCIS:CSI16:1,2009-09-04T04:00:00Z,29.4012,-89.0355,9.502,11111222 
WAVCIS,ioos:station:WAVCIS:CSI16:1,2009-09-04T05:00:00Z,29.4012,-89.0355,9.517,11111222 
WAVCIS,ioos:station:WAVCIS:CSI16:1,2009-09-04T06:00:00Z,29.4012,-89.0355,9.52,11111222 
WAVCIS,ioos:station:WAVCIS:CSI16:1,2009-09-04T07:00:00Z,29.4012,-89.0355,9.511,11111222 
WAVCIS,ioos:station:WAVCIS:CSI16:1,2009-09-04T08:00:00Z,29.4012,-89.0355,9.521,11111222 
WAVCIS,ioos:station:WAVCIS:CSI16:1,2009-09-04T09:00:00Z,29.4012,-89.0355,9.56,11111222 
WAVCIS,ioos:station:WAVCIS:CSI16:1,2009-09-04T10:00:00Z,29.4012,-89.0355,9.571,11111222 
WAVCIS,ioos:station:WAVCIS:CSI16:1,2009-09-04T11:00:00Z,29.4012,-89.0355,9.601,11111222 
WAVCIS,ioos:station:WAVCIS:CSI16:1,2009-09-04T12:00:00Z,29.4012,-89.0355,9.629,11111222 
WAVCIS,ioos:station:WAVCIS:CSI16:1,2009-09-04T13:00:00Z,29.4012,-89.0355,9.687,11111222 
WAVCIS,ioos:station:WAVCIS:CSI16:1,2009-09-04T14:00:00Z,29.4012,-89.0355,9.715,11111222 
WAVCIS,ioos:station:WAVCIS:CSI16:1,2009-09-04T15:00:00Z,29.4012,-89.0355,9.694,11111222 
WAVCIS,ioos:station:WAVCIS:CSI16:1,2009-09-04T16:00:00Z,29.4012,-89.0355,9.709,11111222 
WAVCIS,ioos:station:WAVCIS:CSI16:1,2009-09-04T17:00:00Z,29.4012,-89.0355,9.687,11111222 
WAVCIS,ioos:station:WAVCIS:CSI16:1,2009-09-04T18:00:00Z,29.4012,-89.0355,9.66,11111222 
WAVCIS,ioos:station:WAVCIS:CSI16:1,2009-09-04T19:00:00Z,29.4012,-89.0355,9.636,11111222 
WAVCIS,ioos:station:WAVCIS:CSI16:1,2009-09-04T20:00:00Z,29.4012,-89.0355,9.59,11111222 
WAVCIS,ioos:station:WAVCIS:CSI16:1,2009-09-04T21:00:00Z,29.4012,-89.0355,9.545,11111222 
WAVCIS,ioos:station:WAVCIS:CSI16:1,2009-09-04T22:00:00Z,29.4012,-89.0355,9.524,11111222 
WAVCIS,ioos:station:WAVCIS:CSI16:1,2009-09-04T23:00:00Z,29.4012,-89.0355,9.51,11111222 
WAVCIS,ioos:station:WAVCIS:CSI16:1,2009-09-05T00:00:00Z,29.4012,-89.0355,9.505,11111222 
WAVCIS,ioos:station:WAVCIS:CSI16:1,2009-09-05T01:00:00Z,29.4012,-89.0355,9.522,11111222 
WAVCIS,ioos:station:WAVCIS:CSI16:1,2009-09-05T02:00:00Z,29.4012,-89.0355,9.545,11111222 
WAVCIS,ioos:station:WAVCIS:CSI16:1,2009-09-05T03:00:00Z,29.4012,-89.0355,9.567,11111222 
WAVCIS,ioos:station:WAVCIS:CSI16:1,2009-09-05T04:00:00Z,29.4012,-89.0355,9.58,11111222 
WAVCIS,ioos:station:WAVCIS:CSI16:1,2009-09-05T05:00:00Z,29.4012,-89.0355,9.59,11111222 
WAVCIS,ioos:station:WAVCIS:CSI16:1,2009-09-05T06:00:00Z,29.4012,-89.0355,9.584,11111222 
WAVCIS,ioos:station:WAVCIS:CSI16:1,2009-09-05T07:00:00Z,29.4012,-89.0355,9.582,11111222 
WAVCIS,ioos:station:WAVCIS:CSI16:1,2009-09-05T08:00:00Z,29.4012,-89.0355,9.568,11111222 
WAVCIS,ioos:station:WAVCIS:CSI16:1,2009-09-05T09:00:00Z,29.4012,-89.0355,9.557,11111222 
WAVCIS,ioos:station:WAVCIS:CSI16:1,2009-09-05T10:00:00Z,29.4012,-89.0355,9.545,11111222 
WAVCIS,ioos:station:WAVCIS:CSI16:1,2009-09-05T11:00:00Z,29.4012,-89.0355,9.554,11111222 
WAVCIS,ioos:station:WAVCIS:CSI16:1,2009-09-05T12:00:00Z,29.4012,-89.0355,9.59,11111222 
WAVCIS,ioos:station:WAVCIS:CSI16:1,2009-09-05T13:00:00Z,29.4012,-89.0355,9.6,11111222 
WAVCIS,ioos:station:WAVCIS:CSI16:1,2009-09-05T14:00:00Z,29.4012,-89.0355,9.604,11111222 
WAVCIS,ioos:station:WAVCIS:CSI16:1,2009-09-05T15:00:00Z,29.4012,-89.0355,9.622,11111222 
WAVCIS,ioos:station:WAVCIS:CSI16:1,2009-09-05T16:00:00Z,29.4012,-89.0355,9.632,11111222 
WAVCIS,ioos:station:WAVCIS:CSI16:1,2009-09-05T17:00:00Z,29.4012,-89.0355,9.624,11111222 
WAVCIS,ioos:station:WAVCIS:CSI16:1,2009-09-05T18:00:00Z,29.4012,-89.0355,9.611,11111222 
WAVCIS,ioos:station:WAVCIS:CSI16:1,2009-09-05T19:00:00Z,29.4012,-89.0355,9.592,11111222 
WAVCIS,ioos:station:WAVCIS:CSI16:1,2009-09-05T20:00:00Z,29.4012,-89.0355,9.556,11111222 
WAVCIS,ioos:station:WAVCIS:CSI16:1,2009-09-05T21:00:00Z,29.4012,-89.0355,9.528,11111222 
WAVCIS,ioos:station:WAVCIS:CSI16:1,2009-09-05T22:00:00Z,29.4012,-89.0355,9.513,11111222 
WAVCIS,ioos:station:WAVCIS:CSI16:1,2009-09-05T23:00:00Z,29.4012,-89.0355,9.525,11111222 
WAVCIS,ioos:station:WAVCIS:CSI16:1,2009-09-06T00:00:00Z,29.4012,-89.0355,9.533,11111222 
WAVCIS,ioos:station:WAVCIS:CSI16:1,2009-09-06T01:00:00Z,29.4012,-89.0355,9.549,11111222 
WAVCIS,ioos:station:WAVCIS:CSI16:1,2009-09-06T02:00:00Z,29.4012,-89.0355,9.564,11111222 
WAVCIS,ioos:station:WAVCIS:CSI16:1,2009-09-06T03:00:00Z,29.4012,-89.0355,9.586,11111222 
WAVCIS,ioos:station:WAVCIS:CSI16:1,2009-09-06T04:00:00Z,29.4012,-89.0355,9.59,11111222 
WAVCIS,ioos:station:WAVCIS:CSI16:1,2009-09-06T05:00:00Z,29.4012,-89.0355,9.606,11111222 
WAVCIS,ioos:station:WAVCIS:CSI16:1,2009-09-06T06:00:00Z,29.4012,-89.0355,9.599,11111222 
WAVCIS,ioos:station:WAVCIS:CSI16:1,2009-09-06T07:00:00Z,29.4012,-89.0355,9.576,11111222 
WAVCIS,ioos:station:WAVCIS:CSI16:1,2009-09-06T08:00:00Z,29.4012,-89.0355,9.556,11111222 
WAVCIS,ioos:station:WAVCIS:CSI16:1,2009-09-06T09:00:00Z,29.4012,-89.0355,9.529,11111222 
WAVCIS,ioos:station:WAVCIS:CSI16:1,2009-09-06T10:00:00Z,29.4012,-89.0355,9.518,11111222 
WAVCIS,ioos:station:WAVCIS:CSI16:1,2009-09-06T11:00:00Z,29.4012,-89.0355,9.526,11111222 
WAVCIS,ioos:station:WAVCIS:CSI16:1,2009-09-06T12:00:00Z,29.4012,-89.0355,9.497,11111222 
WAVCIS,ioos:station:WAVCIS:CSI16:1,2009-09-06T13:00:00Z,29.4012,-89.0355,9.545,11111222 
WAVCIS,ioos:station:WAVCIS:CSI16:1,2009-09-06T14:00:00Z,29.4012,-89.0355,9.554,11111222 
WAVCIS,ioos:station:WAVCIS:CSI16:1,2009-09-06T15:00:00Z,29.4012,-89.0355,9.584,11111222 
WAVCIS,ioos:station:WAVCIS:CSI16:1,2009-09-06T16:00:00Z,29.4012,-89.0355,9.6,11111222 
WAVCIS,ioos:station:WAVCIS:CSI16:1,2009-09-06T17:00:00Z,29.4012,-89.0355,9.587,11111222 
WAVCIS,ioos:station:WAVCIS:CSI16:1,2009-09-06T18:00:00Z,29.4012,-89.0355,9.61,11111222 
WAVCIS,ioos:station:WAVCIS:CSI16:1,2009-09-06T19:00:00Z,29.4012,-89.0355,9.595,11111222 
WAVCIS,ioos:station:WAVCIS:CSI16:1,2009-09-06T20:00:00Z,29.4012,-89.0355,9.56,11111222 
WAVCIS,ioos:station:WAVCIS:CSI16:1,2009-09-06T21:00:00Z,29.4012,-89.0355,9.564,11111222 
WAVCIS,ioos:station:WAVCIS:CSI16:1,2009-09-06T22:00:00Z,29.4012,-89.0355,9.571,11111222 
WAVCIS,ioos:station:WAVCIS:CSI16:1,2009-09-06T23:00:00Z,29.4012,-89.0355,9.563,11111222 
WAVCIS,ioos:station:WAVCIS:CSI16:1,2009-09-07T00:00:00Z,29.4012,-89.0355,9.582,11111222 
WAVCIS,ioos:station:WAVCIS:CSI16:1,2009-09-07T01:00:00Z,29.4012,-89.0355,9.591,11111222 
WAVCIS,ioos:station:WAVCIS:CSI16:1,2009-09-07T02:00:00Z,29.4012,-89.0355,9.614,11111222 
WAVCIS,ioos:station:WAVCIS:CSI16:1,2009-09-07T03:00:00Z,29.4012,-89.0355,9.624,11111222 
WAVCIS,ioos:station:WAVCIS:CSI16:1,2009-09-07T04:00:00Z,29.4012,-89.0355,9.619,11111222 
WAVCIS,ioos:station:WAVCIS:CSI16:1,2009-09-07T05:00:00Z,29.4012,-89.0355,9.611,11111222 
WAVCIS,ioos:station:WAVCIS:CSI16:1,2009-09-07T06:00:00Z,29.4012,-89.0355,9.587,11111222 
WAVCIS,ioos:station:WAVCIS:CSI16:1,2009-09-07T07:00:00Z,29.4012,-89.0355,9.564,11111222 
WAVCIS,ioos:station:WAVCIS:CSI16:1,2009-09-07T08:00:00Z,29.4012,-89.0355,9.519,11111222 
WAVCIS,ioos:station:WAVCIS:CSI16:1,2009-09-07T09:00:00Z,29.4012,-89.0355,9.459,11111222 
WAVCIS,ioos:station:WAVCIS:CSI16:1,2009-09-07T10:00:00Z,29.4012,-89.0355,9.422,11111222 
WAVCIS,ioos:station:WAVCIS:CSI16:1,2009-09-07T11:00:00Z,29.4012,-89.0355,9.375,11111222 
WAVCIS,ioos:station:WAVCIS:CSI16:1,2009-09-07T12:00:00Z,29.4012,-89.0355,9.382,11111222 
WAVCIS,ioos:station:WAVCIS:CSI16:1,2009-09-07T13:00:00Z,29.4012,-89.0355,9.377,11111222 
WAVCIS,ioos:station:WAVCIS:CSI16:1,2009-09-07T14:00:00Z,29.4012,-89.0355,9.38,11111222 
WAVCIS,ioos:station:WAVCIS:CSI16:1,2009-09-07T15:00:00Z,29.4012,-89.0355,9.393,11111222 
WAVCIS,ioos:station:WAVCIS:CSI16:1,2009-09-07T16:00:00Z,29.4012,-89.0355,9.425,11111222 
WAVCIS,ioos:station:WAVCIS:CSI16:1,2009-09-07T17:00:00Z,29.4012,-89.0355,9.423,11111222 
WAVCIS,ioos:station:WAVCIS:CSI16:1,2009-09-07T18:00:00Z,29.4012,-89.0355,9.46,11111222 
WAVCIS,ioos:station:WAVCIS:CSI16:1,2009-09-07T19:00:00Z,29.4012,-89.0355,9.468,11111222 
WAVCIS,ioos:station:WAVCIS:CSI16:1,2009-09-07T20:00:00Z,29.4012,-89.0355,9.471,11111222 
WAVCIS,ioos:station:WAVCIS:CSI16:1,2009-09-07T21:00:00Z,29.4012,-89.0355,9.503,11111222 
WAVCIS,ioos:station:WAVCIS:CSI16:1,2009-09-07T22:00:00Z,29.4012,-89.0355,9.527,11111222 
WAVCIS,ioos:station:WAVCIS:CSI16:1,2009-09-07T23:00:00Z,29.4012,-89.0355,9.552,11111222 
WAVCIS,ioos:station:WAVCIS:CSI16:1,2009-09-08T00:00:00Z,29.4012,-89.0355,9.583,11111222 
WAVCIS,ioos:station:WAVCIS:CSI16:1,2009-09-08T01:00:00Z,29.4012,-89.0355,9.608,11111222 
WAVCIS,ioos:station:WAVCIS:CSI16:1,2009-09-08T02:00:00Z,29.4012,-89.0355,9.646,11111222 
WAVCIS,ioos:station:WAVCIS:CSI16:1,2009-09-08T03:00:00Z,29.4012,-89.0355,9.67,11111222 
WAVCIS,ioos:station:WAVCIS:CSI16:1,2009-09-08T04:00:00Z,29.4012,-89.0355,9.676,11111222 
WAVCIS,ioos:station:WAVCIS:CSI16:1,2009-09-08T05:00:00Z,29.4012,-89.0355,9.679,11111222 
WAVCIS,ioos:station:WAVCIS:CSI16:1,2009-09-08T06:00:00Z,29.4012,-89.0355,9.661,11111222 
WAVCIS,ioos:station:WAVCIS:CSI16:1,2009-09-08T07:00:00Z,29.4012,-89.0355,9.648,11111222 
WAVCIS,ioos:station:WAVCIS:CSI16:1,2009-09-08T08:00:00Z,29.4012,-89.0355,9.609,11111222 
WAVCIS,ioos:station:WAVCIS:CSI16:1,2009-09-08T09:00:00Z,29.4012,-89.0355,9.557,11111222 
WAVCIS,ioos:station:WAVCIS:CSI16:1,2009-09-08T10:00:00Z,29.4012,-89.0355,9.515,11111222 
WAVCIS,ioos:station:WAVCIS:CSI16:1,2009-09-08T11:00:00Z,29.4012,-89.0355,9.462,11111222 
WAVCIS,ioos:station:WAVCIS:CSI16:1,2009-09-08T12:00:00Z,29.4012,-89.0355,9.43,11111222 
WAVCIS,ioos:station:WAVCIS:CSI16:1,2009-09-08T13:00:00Z,29.4012,-89.0355,9.411,11111222 
WAVCIS,ioos:station:WAVCIS:CSI16:1,2009-09-08T14:00:00Z,29.4012,-89.0355,9.403,11111222 
WAVCIS,ioos:station:WAVCIS:CSI16:1,2009-09-08T15:00:00Z,29.4012,-89.0355,9.394,11111222 
WAVCIS,ioos:station:WAVCIS:CSI16:1,2009-09-08T16:00:00Z,29.4012,-89.0355,9.378,11111222 
WAVCIS,ioos:station:WAVCIS:CSI16:1,2009-09-08T17:00:00Z,29.4012,-89.0355,9.406,11111222 
WAVCIS,ioos:station:WAVCIS:CSI16:1,2009-09-08T18:00:00Z,29.4012,-89.0355,9.429,11111222 
WAVCIS,ioos:station:WAVCIS:CSI16:1,2009-09-08T19:00:00Z,29.4012,-89.0355,9.455,11111222 
WAVCIS,ioos:station:WAVCIS:CSI16:1,2009-09-08T20:00:00Z,29.4012,-89.0355,9.462,11111222 
WAVCIS,ioos:station:WAVCIS:CSI16:1,2009-09-08T21:00:00Z,29.4012,-89.0355,9.486,11111222 
WAVCIS,ioos:station:WAVCIS:CSI16:1,2009-09-08T22:00:00Z,29.4012,-89.0355,9.505,11111222 
WAVCIS,ioos:station:WAVCIS:CSI16:1,2009-09-08T23:00:00Z,29.4012,-89.0355,9.537,11111222 
WAVCIS,ioos:station:WAVCIS:CSI16:1,2009-09-09T00:00:00Z,29.4012,-89.0355,9.571,11111222 
WAVCIS,ioos:station:WAVCIS:CSI16:1,2009-09-09T01:00:00Z,29.4012,-89.0355,9.612,11111222 
WAVCIS,ioos:station:WAVCIS:CSI16:1,2009-09-09T02:00:00Z,29.4012,-89.0355,9.66,11111222 
WAVCIS,ioos:station:WAVCIS:CSI16:1,2009-09-09T03:00:00Z,29.4012,-89.0355,9.697,11111222 
WAVCIS,ioos:station:WAVCIS:CSI16:1,2009-09-09T04:00:00Z,29.4012,-89.0355,9.713,11111222 
WAVCIS,ioos:station:WAVCIS:CSI16:1,2009-09-09T05:00:00Z,29.4012,-89.0355,9.73,11111222 
WAVCIS,ioos:station:WAVCIS:CSI16:1,2009-09-09T06:00:00Z,29.4012,-89.0355,9.727,11111222 
WAVCIS,ioos:station:WAVCIS:CSI16:1,2009-09-09T07:00:00Z,29.4012,-89.0355,9.71,11111222 
WAVCIS,ioos:station:WAVCIS:CSI16:1,2009-09-09T08:00:00Z,29.4012,-89.0355,9.675,11111222 
WAVCIS,ioos:station:WAVCIS:CSI16:1,2009-09-09T09:00:00Z,29.4012,-89.0355,9.629,11111222 
WAVCIS,ioos:station:WAVCIS:CSI16:1,2009-09-09T10:00:00Z,29.4012,-89.0355,9.57,11111222 
WAVCIS,ioos:station:WAVCIS:CSI16:1,2009-09-09T11:00:00Z,29.4012,-89.0355,9.514,11111222 
WAVCIS,ioos:station:WAVCIS:CSI16:1,2009-09-09T12:00:00Z,29.4012,-89.0355,9.439,11111222 
WAVCIS,ioos:station:WAVCIS:CSI16:1,2009-09-09T13:00:00Z,29.4012,-89.0355,9.383,11111222 
WAVCIS,ioos:station:WAVCIS:CSI16:1,2009-09-09T14:00:00Z,29.4012,-89.0355,9.344,11111222 
WAVCIS,ioos:station:WAVCIS:CSI16:1,2009-09-09T15:00:00Z,29.4012,-89.0355,9.318,11111222 
WAVCIS,ioos:station:WAVCIS:CSI16:1,2009-09-09T16:00:00Z,29.4012,-89.0355,9.322,11111222 
WAVCIS,ioos:station:WAVCIS:CSI16:1,2009-09-09T17:00:00Z,29.4012,-89.0355,9.322,11111222 
WAVCIS,ioos:station:WAVCIS:CSI16:1,2009-09-09T18:00:00Z,29.4012,-89.0355,9.326,11111222 
WAVCIS,ioos:station:WAVCIS:CSI16:1,2009-09-09T19:00:00Z,29.4012,-89.0355,9.345,11111222 
WAVCIS,ioos:station:WAVCIS:CSI16:1,2009-09-09T20:00:00Z,29.4012,-89.0355,9.377,11111222 
WAVCIS,ioos:station:WAVCIS:CSI16:1,2009-09-09T21:00:00Z,29.4012,-89.0355,9.448,11111222 
WAVCIS,ioos:station:WAVCIS:CSI16:1,2009-09-09T22:00:00Z,29.4012,-89.0355,9.495,11111222 
WAVCIS,ioos:station:WAVCIS:CSI16:1,2009-09-09T23:00:00Z,29.4012,-89.0355,9.544,11111222 
WAVCIS,ioos:station:WAVCIS:CSI16:1,2009-09-10T00:00:00Z,29.4012,-89.0355,9.593,11111222 
WAVCIS,ioos:station:WAVCIS:CSI16:1,2009-09-10T01:00:00Z,29.4012,-89.0355,9.651,11111222 
WAVCIS,ioos:station:WAVCIS:CSI16:1,2009-09-10T02:00:00Z,29.4012,-89.0355,9.697,11111222 
WAVCIS,ioos:station:WAVCIS:CSI16:1,2009-09-10T03:00:00Z,29.4012,-89.0355,9.749,11111222 
WAVCIS,ioos:station:WAVCIS:CSI16:1,2009-09-10T04:00:00Z,29.4012,-89.0355,9.779,11111222 
WAVCIS,ioos:station:WAVCIS:CSI16:1,2009-09-10T05:00:00Z,29.4012,-89.0355,9.794,11111222 
WAVCIS,ioos:station:WAVCIS:CSI16:1,2009-09-10T06:00:00Z,29.4012,-89.0355,9.8,11111222 
WAVCIS,ioos:station:WAVCIS:CSI16:1,2009-09-10T07:00:00Z,29.4012,-89.0355,9.792,11111222 
WAVCIS,ioos:station:WAVCIS:CSI16:1,2009-09-10T08:00:00Z,29.4012,-89.0355,9.766,11111222 
WAVCIS,ioos:station:WAVCIS:CSI16:1,2009-09-10T09:00:00Z,29.4012,-89.0355,9.733,11111222 
WAVCIS,ioos:station:WAVCIS:CSI16:1,2009-09-10T10:00:00Z,29.4012,-89.0355,9.677,11111222 
WAVCIS,ioos:station:WAVCIS:CSI16:1,2009-09-10T11:00:00Z,29.4012,-89.0355,9.618,11111222 
WAVCIS,ioos:station:WAVCIS:CSI16:1,2009-09-10T12:00:00Z,29.4012,-89.0355,9.555,11111222 
WAVCIS,ioos:station:WAVCIS:CSI16:1,2009-09-10T13:00:00Z,29.4012,-89.0355,9.499,11111222 
WAVCIS,ioos:station:WAVCIS:CSI16:1,2009-09-10T14:00:00Z,29.4012,-89.0355,9.409,11111222 
WAVCIS,ioos:station:WAVCIS:CSI16:1,2009-09-10T15:00:00Z,29.4012,-89.0355,9.368,11111222 
WAVCIS,ioos:station:WAVCIS:CSI16:1,2009-09-10T16:00:00Z,29.4012,-89.0355,9.352,11111222 
WAVCIS,ioos:station:WAVCIS:CSI16:1,2009-09-10T17:00:00Z,29.4012,-89.0355,9.351,11111222 
WAVCIS,ioos:station:WAVCIS:CSI16:1,2009-09-10T18:00:00Z,29.4012,-89.0355,9.318,11111222 
WAVCIS,ioos:station:WAVCIS:CSI16:1,2009-09-10T19:00:00Z,29.4012,-89.0355,9.321,11111222 
WAVCIS,ioos:station:WAVCIS:CSI16:1,2009-09-10T20:00:00Z,29.4012,-89.0355,9.33,11111222 
WAVCIS,ioos:station:WAVCIS:CSI16:1,2009-09-10T21:00:00Z,29.4012,-89.0355,9.38,11111222 
WAVCIS,ioos:station:WAVCIS:CSI16:1,2009-09-10T22:00:00Z,29.4012,-89.0355,9.469,11111222 
WAVCIS,ioos:station:WAVCIS:CSI16:1,2009-09-10T23:00:00Z,29.4012,-89.0355,9.505,11111222 
WAVCIS,ioos:station:WAVCIS:CSI16:1,2009-09-11T00:00:00Z,29.4012,-89.0355,9.572,11111222 
WAVCIS,ioos:station:WAVCIS:CSI16:1,2009-09-11T01:00:00Z,29.4012,-89.0355,9.631,11111222 
WAVCIS,ioos:station:WAVCIS:CSI16:1,2009-09-11T02:00:00Z,29.4012,-89.0355,9.686,11111222 
WAVCIS,ioos:station:WAVCIS:CSI16:1,2009-09-11T03:00:00Z,29.4012,-89.0355,9.748,11111222 
WAVCIS,ioos:station:WAVCIS:CSI16:1,2009-09-11T04:00:00Z,29.4012,-89.0355,9.783,11111222 
WAVCIS,ioos:station:WAVCIS:CSI16:1,2009-09-11T05:00:00Z,29.4012,-89.0355,9.811,11111222 
WAVCIS,ioos:station:WAVCIS:CSI16:1,2009-09-11T06:00:00Z,29.4012,-89.0355,9.814,11111222 
WAVCIS,ioos:station:WAVCIS:CSI16:1,2009-09-11T07:00:00Z,29.4012,-89.0355,9.814,11111222 
WAVCIS,ioos:station:WAVCIS:CSI16:1,2009-09-11T08:00:00Z,29.4012,-89.0355,9.803,11111222 
WAVCIS,ioos:station:WAVCIS:CSI16:1,2009-09-11T09:00:00Z,29.4012,-89.0355,9.77,11111222 
WAVCIS,ioos:station:WAVCIS:CSI16:1,2009-09-11T10:00:00Z,29.4012,-89.0355,9.738,11111222 
WAVCIS,ioos:station:WAVCIS:CSI16:1,2009-09-11T11:00:00Z,29.4012,-89.0355,9.689,11111222 
WAVCIS,ioos:station:WAVCIS:CSI16:1,2009-09-11T12:00:00Z,29.4012,-89.0355,9.638,11111222 
WAVCIS,ioos:station:WAVCIS:CSI16:1,2009-09-11T13:00:00Z,29.4012,-89.0355,9.584,11111222 
WAVCIS,ioos:station:WAVCIS:CSI16:1,2009-09-11T14:00:00Z,29.4012,-89.0355,9.504,11111222 
WAVCIS,ioos:station:WAVCIS:CSI16:1,2009-09-11T15:00:00Z,29.4012,-89.0355,9.443,11111222 
WAVCIS,ioos:station:WAVCIS:CSI16:1,2009-09-11T16:00:00Z,29.4012,-89.0355,9.443,11111222 
WAVCIS,ioos:station:WAVCIS:CSI16:1,2009-09-11T17:00:00Z,29.4012,-89.0355,9.374,11111222 
WAVCIS,ioos:station:WAVCIS:CSI16:1,2009-09-11T18:00:00Z,29.4012,-89.0355,9.363,11111222 
WAVCIS,ioos:station:WAVCIS:CSI16:1,2009-09-11T19:00:00Z,29.4012,-89.0355,9.334,11111222 
WAVCIS,ioos:station:WAVCIS:CSI16:1,2009-09-11T20:00:00Z,29.4012,-89.0355,9.37,11111222 
WAVCIS,ioos:station:WAVCIS:CSI16:1,2009-09-11T21:00:00Z,29.4012,-89.0355,9.403,11111222 
WAVCIS,ioos:station:WAVCIS:CSI16:1,2009-09-11T22:00:00Z,29.4012,-89.0355,9.467,11111222 
WAVCIS,ioos:station:WAVCIS:CSI16:1,2009-09-11T23:00:00Z,29.4012,-89.0355,9.535,11111222 
WAVCIS,ioos:station:WAVCIS:CSI16:1,2009-09-12T00:00:00Z,29.4012,-89.0355,9.611,11111222 
WAVCIS,ioos:station:WAVCIS:CSI16:1,2009-09-12T01:00:00Z,29.4012,-89.0355,9.655,11111222 
WAVCIS,ioos:station:WAVCIS:CSI16:1,2009-09-12T02:00:00Z,29.4012,-89.0355,9.738,11111222 
WAVCIS,ioos:station:WAVCIS:CSI16:1,2009-09-12T03:00:00Z,29.4012,-89.0355,9.791,11111222 
WAVCIS,ioos:station:WAVCIS:CSI16:1,2009-09-12T04:00:00Z,29.4012,-89.0355,9.844,11111222 